sat.trackr.live / text

‹ back to catalog

STARLINK-37131

NORAD 68605 · 2026-073D

PAYLOAD ACTIVE UNKNOWN

§ Identity

Operator
Country
US
Launch date
2026-04-07
Launch site
AFWTR
Launch vehicle
Mass (kg)
RCS (m²)

Purposes: comms

External: N2YO · Heavens-Above · Gunter

§ Orbital elements

Epoch: 2026-09-20T00:39:10.711584Z

Period
93.91 min
Inclination
97.2847°
Eccentricity
0.0002184
Mean motion
15.33448416 rev/d
Perigee alt
464.0 km
Apogee alt
467.0 km
Semi-major
6,843.7 km
B*
3.7451e-4
RAAN
100.9781°
Arg perigee
99.2716°
Mean anomaly
260.8774°
Rev number
2,566

§ Raw data

STARLINK-371311 68605U 26073D   26263.02720731  .00012037  00000+0  37451-3 0  99992 68605  97.2847 100.9781 0002184  99.2716 260.8774 15.33448416 25661

JSON: /api/v1/satellites/68605 · /tle

For live sub-satellite position, see the globe view (requires WebGL).

§ Visibility from observer

Set your observer location to see the next 7 days of passes ≥ 10°. The values pass through the URL so the page stays shareable.

No JS? Fill the form by hand. The geolocation button needs JavaScript.